User: anonymous   Login
Location: Capelle
(50.3413°N, 1.9974°E)
Time: 06:56:55
(UTC+00:00)
Language:

SMAP - Orbit

View from above orbital plane
View from above orbital plane
View from above satellite
View from above satellite

Ground track
Ground track

The orbit is defined by the following mean orbital elements,

1 40376U          26075.84077756 +.00000000 +00000-0 +10442-3 0 00001
2 40376  98.1311  84.2295 0001606 108.8437 251.2939 14.63348497    09
Epoch (UTC): 16 March 2026 20:10:43
Eccentricity: 0.0001606
inclination: 98.1311°
perigee height: 681 km
apogee height: 684 km
right ascension of ascending node: 84.2295°
argument of perigee: 108.8437°
revolutions per day: 14.63348497
mean anomaly at epoch: 251.2939°

The dashed part of the orbit path shows where the satellite is in the earth's shadow,  

DLR